Year,Month,Day,Hour,Minute,Value (Times are PST for temperature in C)
2008,06,26,00,00,12.20
2008,06,26,00,01,12.20
2008,06,26,00,02,12.10
2008,06,26,00,03,12.10
2008,06,26,00,04,12.10
2008,06,26,00,05,12.10
2008,06,26,00,06,12.00
2008,06,26,00,07,12.00
2008,06,26,00,08,11.90
2008,06,26,00,09,11.90
2008,06,26,00,10,11.90
2008,06,26,00,11,11.90
2008,06,26,00,12,11.90
2008,06,26,00,13,11.80
2008,06,26,00,14,11.80
2008,06,26,00,15,11.80
2008,06,26,00,16,11.80
2008,06,26,00,17,11.80
2008,06,26,00,18,11.80
2008,06,26,00,19,11.70
2008,06,26,00,20,11.70
2008,06,26,00,21,11.70
2008,06,26,00,22,11.70
2008,06,26,00,23,11.70
2008,06,26,00,24,11.70
2008,06,26,00,25,11.70
2008,06,26,00,26,11.70
2008,06,26,00,27,11.70
2008,06,26,00,28,11.60
2008,06,26,00,29,11.70
2008,06,26,00,30,11.60
2008,06,26,00,31,11.60
2008,06,26,00,32,11.60
2008,06,26,00,33,11.60
2008,06,26,00,34,11.60
2008,06,26,00,35,11.60
2008,06,26,00,36,11.60
2008,06,26,00,37,11.50
2008,06,26,00,38,11.50
2008,06,26,00,39,11.50
2008,06,26,00,40,11.50
2008,06,26,00,41,11.40
2008,06,26,00,42,11.40
2008,06,26,00,43,11.40
2008,06,26,00,44,11.40
2008,06,26,00,45,11.40
2008,06,26,00,46,11.40
2008,06,26,00,47,11.40
2008,06,26,00,48,11.40
2008,06,26,00,49,11.40
2008,06,26,00,50,11.40
2008,06,26,00,51,11.40
2008,06,26,00,52,11.40
2008,06,26,00,53,11.40
2008,06,26,00,54,11.40
2008,06,26,00,55,11.40
2008,06,26,00,56,11.40
2008,06,26,00,57,11.40
2008,06,26,00,58,11.40
2008,06,26,00,59,11.40
2008,06,26,01,00,11.40
2008,06,26,01,01,11.40
2008,06,26,01,02,11.40
2008,06,26,01,03,11.40
2008,06,26,01,04,11.30
2008,06,26,01,05,11.30
2008,06,26,01,06,11.30
2008,06,26,01,07,11.30
2008,06,26,10,02,15.40
2008,06,26,10,03,15.40
2008,06,26,10,04,15.50
2008,06,26,10,05,15.60
2008,06,26,10,06,15.60
2008,06,26,10,07,15.70
2008,06,26,10,08,15.70
2008,06,26,10,09,15.80
2008,06,26,10,10,15.80
2008,06,26,10,11,15.90
2008,06,26,10,12,16.00
2008,06,26,10,13,16.10
2008,06,26,10,14,16.20
2008,06,26,10,15,16.30
2008,06,26,10,16,16.40
2008,06,26,10,17,16.50
2008,06,26,10,18,16.50
2008,06,26,10,19,16.60
2008,06,26,10,20,16.60
2008,06,26,10,21,16.60
2008,06,26,10,22,16.60
2008,06,26,10,23,16.70
2008,06,26,10,24,16.70
2008,06,26,10,25,16.70
2008,06,26,10,26,16.70
2008,06,26,10,27,16.70
2008,06,26,10,28,16.80
2008,06,26,10,29,16.80
2008,06,26,10,30,16.80
2008,06,26,10,31,16.80
2008,06,26,10,32,16.80
2008,06,26,10,33,16.70
2008,06,26,10,34,16.70
2008,06,26,10,35,16.60
2008,06,26,10,36,16.60
2008,06,26,10,37,16.50
2008,06,26,10,38,16.50
2008,06,26,10,39,16.40
2008,06,26,10,40,16.30
2008,06,26,10,41,16.30
2008,06,26,10,42,16.30
2008,06,26,10,43,16.30
2008,06,26,10,44,16.30
2008,06,26,10,45,16.30
2008,06,26,10,46,16.30
2008,06,26,10,47,16.30
2008,06,26,10,48,16.30
2008,06,26,10,49,16.30
2008,06,26,10,50,16.30
2008,06,26,10,51,16.20
2008,06,26,10,52,16.20
2008,06,26,10,53,16.00
2008,06,26,10,54,15.90
2008,06,26,10,55,15.80
2008,06,26,10,56,15.80
2008,06,26,10,57,15.70
2008,06,26,10,58,15.70
2008,06,26,10,59,15.70
2008,06,26,11,00,15.70
2008,06,26,11,01,15.70
2008,06,26,11,02,15.80
2008,06,26,11,03,15.80
2008,06,26,11,04,15.70
2008,06,26,11,05,15.70
2008,06,26,11,06,15.70
2008,06,26,11,07,15.70
2008,06,26,11,08,15.80
2008,06,26,11,09,15.80
2008,06,26,11,10,15.80
2008,06,26,11,11,15.80
2008,06,26,11,12,15.70
2008,06,26,11,13,15.70
2008,06,26,11,14,15.70
2008,06,26,11,15,15.70
2008,06,26,11,16,15.70
2008,06,26,11,17,15.80
2008,06,26,11,18,15.80
2008,06,26,11,19,15.90
2008,06,26,11,20,15.90
2008,06,26,11,21,15.90
2008,06,26,11,22,15.90
2008,06,26,11,23,16.00
2008,06,26,11,24,15.90
2008,06,26,11,25,16.00
2008,06,26,11,26,16.00
2008,06,26,11,27,16.00
2008,06,26,11,28,16.10
2008,06,26,11,29,16.10
2008,06,26,11,30,16.10
2008,06,26,11,31,16.10
2008,06,26,11,32,16.00
2008,06,26,11,33,16.00
2008,06,26,11,34,16.10
2008,06,26,11,35,16.10
2008,06,26,11,36,16.10
2008,06,26,11,37,16.10
2008,06,26,11,38,16.20
2008,06,26,11,39,16.20
2008,06,26,11,40,16.20
2008,06,26,11,41,16.30
2008,06,26,11,42,16.40
2008,06,26,11,43,16.50
2008,06,26,11,44,16.50
2008,06,26,11,45,16.60
2008,06,26,11,46,16.70
2008,06,26,11,47,16.70
2008,06,26,11,48,16.60
2008,06,26,11,49,16.60
2008,06,26,11,50,16.50
2008,06,26,11,51,16.30
2008,06,26,11,52,16.10
2008,06,26,11,53,15.90
2008,06,26,11,54,15.80
2008,06,26,11,55,15.70
2008,06,26,11,56,15.60
2008,06,26,11,57,15.50
2008,06,26,11,58,15.40
2008,06,26,11,59,15.30
2008,06,26,12,00,15.30
2008,06,26,12,01,15.20
2008,06,26,12,02,15.20
2008,06,26,12,03,15.20
2008,06,26,12,04,15.20
2008,06,26,12,05,15.20
2008,06,26,12,06,15.30
2008,06,26,12,07,15.30
2008,06,26,12,08,15.30
2008,06,26,12,09,15.30
2008,06,26,12,10,15.40
2008,06,26,12,11,15.50
2008,06,26,12,12,15.50
2008,06,26,12,13,15.60
2008,06,26,12,14,15.60
2008,06,26,12,15,15.70
2008,06,26,12,16,15.80
2008,06,26,12,17,15.80
2008,06,26,12,18,15.80
2008,06,26,12,19,15.80
2008,06,26,12,20,15.80
2008,06,26,12,21,15.80
2008,06,26,12,22,15.80
2008,06,26,12,23,15.80
2008,06,26,12,24,15.80
2008,06,26,12,25,15.90
2008,06,26,12,26,15.90
2008,06,26,12,27,16.00
2008,06,26,12,28,16.00
2008,06,26,12,29,16.00
2008,06,26,12,30,16.10
2008,06,26,12,31,16.20
2008,06,26,12,32,16.30
2008,06,26,12,33,16.30
2008,06,26,12,34,16.40
2008,06,26,12,35,16.40
2008,06,26,12,36,16.50
2008,06,26,12,37,16.50
2008,06,26,12,38,16.50
2008,06,26,12,39,16.40
2008,06,26,12,40,16.40
2008,06,26,12,41,16.40
2008,06,26,12,42,16.30
2008,06,26,12,43,16.20
2008,06,26,12,44,16.10
2008,06,26,12,45,16.00
2008,06,26,12,46,15.90
2008,06,26,12,47,15.80
2008,06,26,12,48,15.80
2008,06,26,12,49,15.70
2008,06,26,12,50,15.60
2008,06,26,12,51,15.60
2008,06,26,12,52,15.50
2008,06,26,12,53,15.40
2008,06,26,12,54,15.40
2008,06,26,12,55,15.40
2008,06,26,12,56,15.40
2008,06,26,12,57,15.40
2008,06,26,12,58,15.30
2008,06,26,12,59,15.30
2008,06,26,13,00,15.30
2008,06,26,13,01,15.40
2008,06,26,13,02,15.40
2008,06,26,13,03,15.50
2008,06,26,13,04,15.60
2008,06,26,13,05,15.70
2008,06,26,13,06,15.80
2008,06,26,13,07,15.80
2008,06,26,13,08,15.90
2008,06,26,13,09,16.00
2008,06,26,13,10,16.00
2008,06,26,13,11,16.10
2008,06,26,13,12,16.00
2008,06,26,13,13,16.00
2008,06,26,13,14,15.90
2008,06,26,13,15,15.90
2008,06,26,13,16,15.90
2008,06,26,13,17,15.90
2008,06,26,13,18,15.90
2008,06,26,13,19,15.90
2008,06,26,13,20,15.80
2008,06,26,13,21,15.80
2008,06,26,13,22,15.80
2008,06,26,13,23,15.70
2008,06,26,13,24,15.70
2008,06,26,13,25,15.70
2008,06,26,13,26,15.70
2008,06,26,13,27,15.80
2008,06,26,13,28,15.90
2008,06,26,13,29,16.00
2008,06,26,13,30,16.20
2008,06,26,13,31,16.20
2008,06,26,13,32,16.30
2008,06,26,13,33,16.30
2008,06,26,13,34,16.20
2008,06,26,13,35,16.20
2008,06,26,13,36,16.10
2008,06,26,13,37,15.90
2008,06,26,13,38,15.80
2008,06,26,13,39,15.70
2008,06,26,13,40,15.70
2008,06,26,13,41,15.80
2008,06,26,13,42,15.90
2008,06,26,13,43,15.90
2008,06,26,13,44,15.90
2008,06,26,13,45,15.90
2008,06,26,13,46,15.80
2008,06,26,13,47,15.80
2008,06,26,13,48,15.80
2008,06,26,13,49,15.80
2008,06,26,13,50,15.90
2008,06,26,13,51,15.90
2008,06,26,13,52,15.90
2008,06,26,13,53,15.80
2008,06,26,13,54,15.80
2008,06,26,13,55,15.80
2008,06,26,13,56,15.80
2008,06,26,13,57,15.90
2008,06,26,13,58,15.90
2008,06,26,13,59,15.90
2008,06,26,14,00,16.00
2008,06,26,14,01,16.10
2008,06,26,14,02,16.10
2008,06,26,14,03,16.10
2008,06,26,14,04,16.20
2008,06,26,14,05,16.20
2008,06,26,14,06,16.10
2008,06,26,14,07,16.10
2008,06,26,14,08,16.00
2008,06,26,14,09,16.00
2008,06,26,14,10,15.90
2008,06,26,14,11,15.90
2008,06,26,14,12,15.90
2008,06,26,14,13,15.90
2008,06,26,14,14,15.90
2008,06,26,14,15,15.90
2008,06,26,14,16,15.90
2008,06,26,14,17,15.90
2008,06,26,14,18,16.00
2008,06,26,14,19,16.00
2008,06,26,14,20,16.00
2008,06,26,14,21,16.00
2008,06,26,14,22,16.10
2008,06,26,14,23,16.10
2008,06,26,14,24,16.10
2008,06,26,14,25,16.20
2008,06,26,14,26,16.20
2008,06,26,14,27,16.30
2008,06,26,14,28,16.30
2008,06,26,14,29,16.20
2008,06,26,14,30,16.20
2008,06,26,14,31,16.10
2008,06,26,14,32,16.10
2008,06,26,14,33,16.10
2008,06,26,14,34,16.10
2008,06,26,14,35,16.20
2008,06,26,14,36,16.20
2008,06,26,14,37,16.10
2008,06,26,14,38,16.10
2008,06,26,14,39,16.20
2008,06,26,14,40,16.20
2008,06,26,14,41,16.10
2008,06,26,14,42,16.00
2008,06,26,14,43,15.90
2008,06,26,14,44,15.90
2008,06,26,14,45,15.80
2008,06,26,14,46,15.80
2008,06,26,14,47,15.90
2008,06,26,14,48,15.90
2008,06,26,14,49,16.00
2008,06,26,14,50,16.00
2008,06,26,14,51,16.10
2008,06,26,14,52,16.10
2008,06,26,14,53,16.10
2008,06,26,14,54,16.10
2008,06,26,14,55,16.10
2008,06,26,14,56,16.20
2008,06,26,14,57,16.20
2008,06,26,14,58,16.20
2008,06,26,14,59,16.20
2008,06,26,15,00,16.20
2008,06,26,15,01,16.20
2008,06,26,15,02,16.20
2008,06,26,15,03,16.30
2008,06,26,15,04,16.30
2008,06,26,15,05,16.20
2008,06,26,15,06,16.20
2008,06,26,15,07,16.20
2008,06,26,15,08,16.20
2008,06,26,15,09,16.30
2008,06,26,15,10,16.30
2008,06,26,15,11,16.40
2008,06,26,15,12,16.40
2008,06,26,15,13,16.40
2008,06,26,15,14,16.40
2008,06,26,15,15,16.40
2008,06,26,15,16,16.40
2008,06,26,15,17,16.40
2008,06,26,15,18,16.40
2008,06,26,15,19,16.40
2008,06,26,15,20,16.40
2008,06,26,15,21,16.40
2008,06,26,15,22,16.40
2008,06,26,15,23,16.50
2008,06,26,15,24,16.50
2008,06,26,15,25,16.50
2008,06,26,15,26,16.50
2008,06,26,15,27,16.50
2008,06,26,15,28,16.40
2008,06,26,15,29,16.40
2008,06,26,15,30,16.40
2008,06,26,15,31,16.40
2008,06,26,15,32,16.30
2008,06,26,15,33,16.40
2008,06,26,15,34,16.40
2008,06,26,15,35,16.50
2008,06,26,15,36,16.50
2008,06,26,15,37,16.60
2008,06,26,15,38,16.60
2008,06,26,15,39,16.60
2008,06,26,15,40,16.60
2008,06,26,15,41,16.60
2008,06,26,15,42,16.70
2008,06,26,15,43,16.70
2008,06,26,15,44,16.60
2008,06,26,15,45,16.60
2008,06,26,15,46,16.60
2008,06,26,15,47,16.70
2008,06,26,15,48,16.70
2008,06,26,15,49,16.70
2008,06,26,15,50,16.70
2008,06,26,15,51,16.70
2008,06,26,15,52,16.70
2008,06,26,15,53,16.70
2008,06,26,15,54,16.70
2008,06,26,15,55,16.80
2008,06,26,15,56,16.80
2008,06,26,15,57,16.80
2008,06,26,15,58,16.80
2008,06,26,15,59,16.80
2008,06,26,16,00,16.80
2008,06,26,16,01,16.80
2008,06,26,16,02,16.80
2008,06,26,16,03,16.80
2008,06,26,16,04,16.90
2008,06,26,16,05,16.90
2008,06,26,16,06,16.90
2008,06,26,16,07,16.90
2008,06,26,16,08,16.90
2008,06,26,16,09,16.90
2008,06,26,16,10,16.90
2008,06,26,16,11,16.90
2008,06,26,16,12,16.90
2008,06,26,16,13,16.90
2008,06,26,16,14,16.80
2008,06,26,16,15,16.80
2008,06,26,16,16,16.80
2008,06,26,16,17,16.70
2008,06,26,16,18,16.70
2008,06,26,16,19,16.60
2008,06,26,16,20,16.50
2008,06,26,16,21,16.50
2008,06,26,16,22,16.40
2008,06,26,16,23,16.40
2008,06,26,16,24,16.40
2008,06,26,16,25,16.30
2008,06,26,16,26,16.30
2008,06,26,16,27,16.30
2008,06,26,16,28,16.20
2008,06,26,16,29,16.20
2008,06,26,16,30,16.20
2008,06,26,16,31,16.20
2008,06,26,16,32,16.20
2008,06,26,16,33,16.30
2008,06,26,16,34,16.30
2008,06,26,16,35,16.30
2008,06,26,16,36,16.40
2008,06,26,16,37,16.30
2008,06,26,16,38,16.40
2008,06,26,16,39,16.50
2008,06,26,16,40,16.50
2008,06,26,16,41,16.50
2008,06,26,16,42,16.50
2008,06,26,16,43,16.40
2008,06,26,16,44,16.40
2008,06,26,16,45,16.30
2008,06,26,16,46,16.30
2008,06,26,16,47,16.30
2008,06,26,16,48,16.30
2008,06,26,16,49,16.20
2008,06,26,16,50,16.20
2008,06,26,16,51,16.10
2008,06,26,16,52,16.10
2008,06,26,16,53,16.10
2008,06,26,16,54,16.10
2008,06,26,16,55,16.10
2008,06,26,16,56,16.10
2008,06,26,16,57,16.10
2008,06,26,16,58,16.10
2008,06,26,16,59,16.10
2008,06,26,17,00,16.10
2008,06,26,17,01,16.00
2008,06,26,17,02,15.90
2008,06,26,17,03,15.80
2008,06,26,17,04,15.80
2008,06,26,17,05,15.70
2008,06,26,17,06,15.70
2008,06,26,17,07,15.60
2008,06,26,17,08,15.60
2008,06,26,17,09,15.60
2008,06,26,17,10,15.60
2008,06,26,17,11,15.50
2008,06,26,17,12,15.50
2008,06,26,17,13,15.50
2008,06,26,17,14,15.50
2008,06,26,17,15,15.50
2008,06,26,17,16,15.60
2008,06,26,17,17,15.60
2008,06,26,17,18,15.50
2008,06,26,17,19,15.50
2008,06,26,17,20,15.40
2008,06,26,17,21,15.40
2008,06,26,17,22,15.40
2008,06,26,17,23,15.30
2008,06,26,17,24,15.30
2008,06,26,17,25,15.40
2008,06,26,17,26,15.40
2008,06,26,17,27,15.40
2008,06,26,17,28,15.50
2008,06,26,17,29,15.50
2008,06,26,17,30,15.50
2008,06,26,17,31,15.50
2008,06,26,17,32,15.50
2008,06,26,17,33,15.60
2008,06,26,17,34,15.50
2008,06,26,17,35,15.50
2008,06,26,17,36,15.60
2008,06,26,17,37,15.60
2008,06,26,17,38,15.60
2008,06,26,17,39,15.60
2008,06,26,17,40,15.70
2008,06,26,17,41,15.70
2008,06,26,17,42,15.70
2008,06,26,17,43,15.70
2008,06,26,17,44,15.70
2008,06,26,17,45,15.70
2008,06,26,17,46,15.70
2008,06,26,17,47,15.70
2008,06,26,17,48,15.70
2008,06,26,17,49,15.70
2008,06,26,17,50,15.80
2008,06,26,17,51,15.80
2008,06,26,17,52,15.70
2008,06,26,17,53,15.70
2008,06,26,17,54,15.60
2008,06,26,17,55,15.60
2008,06,26,17,56,15.60
2008,06,26,17,57,15.60
2008,06,26,17,58,15.50
2008,06,26,17,59,15.50
2008,06,26,18,00,15.50
2008,06,26,18,01,15.50
2008,06,26,18,02,15.50
2008,06,26,18,03,15.50
2008,06,26,18,04,15.50
2008,06,26,18,05,15.60
2008,06,26,18,06,15.60
2008,06,26,18,07,15.70
2008,06,26,18,08,15.70
2008,06,26,18,09,15.80
2008,06,26,18,10,15.80
2008,06,26,18,11,15.80
2008,06,26,18,12,15.80
2008,06,26,18,13,15.80
2008,06,26,18,14,15.80
2008,06,26,18,15,15.80
2008,06,26,18,16,15.70
2008,06,26,18,17,15.70
2008,06,26,18,18,15.70
2008,06,26,18,19,15.70
2008,06,26,18,20,15.60
2008,06,26,18,21,15.60
2008,06,26,18,22,15.50
2008,06,26,18,23,15.50
2008,06,26,18,24,15.50
2008,06,26,18,25,15.40
2008,06,26,18,26,15.40
2008,06,26,18,27,15.40
2008,06,26,18,28,15.40
2008,06,26,18,29,15.40
2008,06,26,18,30,15.40
2008,06,26,18,31,15.40
2008,06,26,18,32,15.40
2008,06,26,18,33,15.40
2008,06,26,18,34,15.40
2008,06,26,18,35,15.40
2008,06,26,18,36,15.40
2008,06,26,18,37,15.40
2008,06,26,18,38,15.40
2008,06,26,18,39,15.30
2008,06,26,18,40,15.20
2008,06,26,18,41,15.00
2008,06,26,18,42,15.00
2008,06,26,18,43,15.00
2008,06,26,18,44,15.00
2008,06,26,18,45,14.90
2008,06,26,18,46,14.90
2008,06,26,18,47,14.90
2008,06,26,18,48,14.90
2008,06,26,18,49,14.90
2008,06,26,18,50,14.90
2008,06,26,18,51,14.90
2008,06,26,18,52,14.90
2008,06,26,18,53,14.90
2008,06,26,18,54,14.90
2008,06,26,18,55,14.90
2008,06,26,18,56,14.90
2008,06,26,18,57,15.00
2008,06,26,18,58,15.00
2008,06,26,18,59,15.00
2008,06,26,19,00,15.00
2008,06,26,19,01,15.00
2008,06,26,19,02,15.00
2008,06,26,19,03,15.00
2008,06,26,19,04,15.00
2008,06,26,19,05,15.00
2008,06,26,19,06,15.00
2008,06,26,19,07,15.00
2008,06,26,19,08,15.00
2008,06,26,19,09,15.00
2008,06,26,19,10,15.00
2008,06,26,19,11,14.90
2008,06,26,19,12,14.90
2008,06,26,19,13,14.90
2008,06,26,19,14,14.90
2008,06,26,19,15,14.90
2008,06,26,19,16,15.00
2008,06,26,19,17,15.00
2008,06,26,19,18,15.00
2008,06,26,19,19,15.00
2008,06,26,19,20,15.00
2008,06,26,19,21,15.00
2008,06,26,19,22,15.10
2008,06,26,19,23,15.10
2008,06,26,19,24,15.20
2008,06,26,19,25,15.20
2008,06,26,19,26,15.10
2008,06,26,19,27,15.00
2008,06,26,19,28,15.00
2008,06,26,19,29,15.00
2008,06,26,19,30,15.00
2008,06,26,19,31,15.00
2008,06,26,19,32,15.00
2008,06,26,19,33,15.00
2008,06,26,19,34,15.00
2008,06,26,19,35,15.00
2008,06,26,19,36,15.00
2008,06,26,19,37,15.00
2008,06,26,19,38,15.00
2008,06,26,19,39,15.00
2008,06,26,19,40,15.00
2008,06,26,19,41,15.00
2008,06,26,19,42,15.00
2008,06,26,19,43,15.10
2008,06,26,19,44,15.10
2008,06,26,19,45,15.00
2008,06,26,19,46,15.00
2008,06,26,19,47,15.00
2008,06,26,19,48,15.00
2008,06,26,19,49,15.00
2008,06,26,19,50,15.00
2008,06,26,19,51,15.00
2008,06,26,19,52,15.00
2008,06,26,19,53,15.00
2008,06,26,19,54,15.00
2008,06,26,19,55,15.00
2008,06,26,19,56,15.00
2008,06,26,19,57,15.00
2008,06,26,19,58,15.00
2008,06,26,19,59,15.00
2008,06,26,20,00,15.00
2008,06,26,20,01,14.90
2008,06,26,20,02,14.90
2008,06,26,20,03,14.90
2008,06,26,20,04,14.90
2008,06,26,20,05,14.80
2008,06,26,20,06,14.90
2008,06,26,20,07,14.90
2008,06,26,20,08,15.00
2008,06,26,20,09,15.00
2008,06,26,20,10,15.00
2008,06,26,20,11,15.00
2008,06,26,20,12,15.00
2008,06,26,20,13,14.90
2008,06,26,20,14,14.90
2008,06,26,20,15,14.80
2008,06,26,20,16,14.80
2008,06,26,20,17,14.80
2008,06,26,20,18,14.80
2008,06,26,20,19,14.80
2008,06,26,20,20,14.70
2008,06,26,20,21,14.70
2008,06,26,20,22,14.70
2008,06,26,20,23,14.70
2008,06,26,20,24,14.70
2008,06,26,20,25,14.70
2008,06,26,20,26,14.70
2008,06,26,20,27,14.70
2008,06,26,20,28,14.60
2008,06,26,20,29,14.60
2008,06,26,20,30,14.60
2008,06,26,20,31,14.50
2008,06,26,20,32,14.50
2008,06,26,20,33,14.50
2008,06,26,20,34,14.40
2008,06,26,20,35,14.40
2008,06,26,20,36,14.40
2008,06,26,20,37,14.40
2008,06,26,20,38,14.40
2008,06,26,20,39,14.40
2008,06,26,20,40,14.40
2008,06,26,20,41,14.40
2008,06,26,20,42,14.30
2008,06,26,20,43,14.30
2008,06,26,20,44,14.30
2008,06,26,20,45,14.30
2008,06,26,20,46,14.20
2008,06,26,20,47,14.20
2008,06,26,20,48,14.20
2008,06,26,20,49,14.20
2008,06,26,20,50,14.10
2008,06,26,20,51,14.10
2008,06,26,20,52,14.10
2008,06,26,20,53,14.10
2008,06,26,20,54,14.00
2008,06,26,20,55,14.00
2008,06,26,20,56,13.90
2008,06,26,20,57,13.90
2008,06,26,20,58,13.80
2008,06,26,20,59,13.80
2008,06,26,21,00,13.80
2008,06,26,21,01,13.80
2008,06,26,21,02,13.70
2008,06,26,21,03,13.70
2008,06,26,21,04,13.70
2008,06,26,21,05,13.70
2008,06,26,21,06,13.60
2008,06,26,21,07,13.60
2008,06,26,21,08,13.50
2008,06,26,21,09,13.40
2008,06,26,21,10,13.40
2008,06,26,21,11,13.30
2008,06,26,21,12,13.30
2008,06,26,21,13,13.20
2008,06,26,21,14,13.20
2008,06,26,21,15,13.10
2008,06,26,21,16,13.10
2008,06,26,21,17,13.00
2008,06,26,21,18,13.00
2008,06,26,21,19,12.90
2008,06,26,21,20,12.90
2008,06,26,21,21,12.80
2008,06,26,21,22,12.80
2008,06,26,21,23,12.70
2008,06,26,21,24,12.70
2008,06,26,21,25,12.70
2008,06,26,21,26,12.70
2008,06,26,21,27,12.60
2008,06,26,21,28,12.60
2008,06,26,21,29,12.60
2008,06,26,21,30,12.60
2008,06,26,21,31,12.60
2008,06,26,21,32,12.50
2008,06,26,21,33,12.50
2008,06,26,21,34,12.50
2008,06,26,21,35,12.60
2008,06,26,21,36,12.60
2008,06,26,21,37,12.60
2008,06,26,21,38,12.60
2008,06,26,21,39,12.60
2008,06,26,21,40,12.70
2008,06,26,21,41,12.70
2008,06,26,21,42,12.70
2008,06,26,21,43,12.70
2008,06,26,21,44,12.70
2008,06,26,21,45,12.70
2008,06,26,21,46,12.70
2008,06,26,21,47,12.70
2008,06,26,21,48,12.80
2008,06,26,21,49,12.80
2008,06,26,21,50,12.80
2008,06,26,21,51,12.80
2008,06,26,21,52,12.80
2008,06,26,21,53,12.80
2008,06,26,21,54,12.80
2008,06,26,21,55,12.80
2008,06,26,21,56,12.80
2008,06,26,21,57,12.80
2008,06,26,21,58,12.70
2008,06,26,21,59,12.70
2008,06,26,22,00,12.60
2008,06,26,22,01,12.60
2008,06,26,22,02,12.60
2008,06,26,22,03,12.50
2008,06,26,22,04,12.50
2008,06,26,22,05,12.40
2008,06,26,22,06,12.40
2008,06,26,22,07,12.40
2008,06,26,22,08,12.40
2008,06,26,22,09,12.40
2008,06,26,22,10,12.40
2008,06,26,22,11,12.40
2008,06,26,22,12,12.40
2008,06,26,22,13,12.40
2008,06,26,22,14,12.40
2008,06,26,22,15,12.40
2008,06,26,22,16,12.30
2008,06,26,22,17,12.30
2008,06,26,22,18,12.30
2008,06,26,22,19,12.30
2008,06,26,22,20,12.20
2008,06,26,22,21,12.20
2008,06,26,22,22,12.20
2008,06,26,22,23,12.10
2008,06,26,22,24,12.10
2008,06,26,22,25,12.10
2008,06,26,22,26,12.00
2008,06,26,22,27,12.00
2008,06,26,22,28,11.90
2008,06,26,22,29,11.90
2008,06,26,22,30,11.80
2008,06,26,22,31,11.80
2008,06,26,22,32,11.80
2008,06,26,22,33,11.70
2008,06,26,22,34,11.70
2008,06,26,22,35,11.60
2008,06,26,22,36,11.60
2008,06,26,22,37,11.50
2008,06,26,22,38,11.50
2008,06,26,22,39,11.40
2008,06,26,22,40,11.40
2008,06,26,22,41,11.40
2008,06,26,22,42,11.30
2008,06,26,22,43,11.30
2008,06,26,22,44,11.30
2008,06,26,22,45,11.30
2008,06,26,22,46,11.20
2008,06,26,22,47,11.20
2008,06,26,22,48,11.20
2008,06,26,22,49,11.20
2008,06,26,22,50,11.10
2008,06,26,22,51,11.10
2008,06,26,22,52,11.10
2008,06,26,22,53,11.10
2008,06,26,22,54,11.10
2008,06,26,22,55,11.10
2008,06,26,22,56,11.00
2008,06,26,22,57,11.00
2008,06,26,22,58,11.00
2008,06,26,22,59,11.00
2008,06,26,23,00,10.90
2008,06,26,23,01,10.90
2008,06,26,23,02,10.90
2008,06,26,23,03,10.90
2008,06,26,23,04,10.90
2008,06,26,23,05,10.90
2008,06,26,23,06,10.90
2008,06,26,23,07,10.90
2008,06,26,23,08,10.90
2008,06,26,23,09,10.90
2008,06,26,23,10,10.90
2008,06,26,23,11,10.80
2008,06,26,23,12,10.80
2008,06,26,23,13,10.80
2008,06,26,23,14,10.80
2008,06,26,23,15,10.80
2008,06,26,23,16,10.80
2008,06,26,23,17,10.70
2008,06,26,23,18,10.70
2008,06,26,23,19,10.70
2008,06,26,23,20,10.70
2008,06,26,23,21,10.70
2008,06,26,23,22,10.70
2008,06,26,23,23,10.70
2008,06,26,23,24,10.60
2008,06,26,23,25,10.60
2008,06,26,23,26,10.60
2008,06,26,23,27,10.60
2008,06,26,23,28,10.60
2008,06,26,23,29,10.60
2008,06,26,23,30,10.60
2008,06,26,23,31,10.50
2008,06,26,23,32,10.50
2008,06,26,23,33,10.50
2008,06,26,23,34,10.40
2008,06,26,23,35,10.40
2008,06,26,23,36,10.40
2008,06,26,23,37,10.40
2008,06,26,23,38,10.40
2008,06,26,23,39,10.40
2008,06,26,23,40,10.30
2008,06,26,23,41,10.30
2008,06,26,23,42,10.30
2008,06,26,23,43,10.30
2008,06,26,23,44,10.30
2008,06,26,23,45,10.30
2008,06,26,23,46,10.30
2008,06,26,23,47,10.30
2008,06,26,23,48,10.20
2008,06,26,23,49,10.20
2008,06,26,23,50,10.20
2008,06,26,23,51,10.20
2008,06,26,23,52,10.20
2008,06,26,23,53,10.20
2008,06,26,23,54,10.10
2008,06,26,23,55,10.10
2008,06,26,23,56,10.10
2008,06,26,23,57,10.10
2008,06,26,23,58,10.10
2008,06,26,23,59,10.10
